User: anonymous   Login
Location: Unspecified
(0.0000°N, 0.0000°E)
Time: 00:07:36
(UTC+00:00)
Language:

Falconsat - Orbit

View from above orbital plane
View from above orbital plane
View from above satellite
View from above satellite

Ground track
Ground track

The orbit data is extracted from the following two-line orbital elements,

1 26064U 00004D   24201.41099697  .00000565  00000-0  20998-3 0  9993
2 26064 100.2148 350.9013 0036951 225.9755 133.8379 14.36754130282545
Epoch (UTC): 19 July 2024 09:51:50
Eccentricity: 0.0036951
inclination: 100.2148°
perigee height: 743 km
apogee height: 795 km
right ascension of ascending node: 350.9013°
argument of perigee: 225.9755°
revolutions per day: 14.36754130
mean anomaly at epoch: 133.8379°
orbit number at epoch: 28254

The dashed part of the orbit path shows where the satellite is in the earth's shadow,  

DLR